[[{"header":{"parameterUnit":"m.s-1","parameterCategory":1,"la1":30.2991,"la2":30.254,"lo1":-89.0895,"lo2":-89.0444,"dy":0.0017,"dx":0.0017,"nx":28,"ny":28,"refTime":"2023-11-14T03:00:00:Z","depth":0,"parameterNumber":2,"parameterNumberName":"U-component_of_WINDS"},"data":[0,0,0,0,0,0,0,0,0,0,0,0,0,0,0,0,0,0,0,0,0,0,0,0,0,0,0,0,0,0,0,0,0,0,0,0,0,0,0,0,0,0,0,0,0,0,0,0,0,0,0,0,0,0,0,0,0,0,-6.7886,-6.7888,0,-6.8048,-6.805,-6.8051,-6.7927,-6.7921,-6.7916,-6.7911,-6.8081,-6.809,-6.8099,0,0,0,0,0,0,0,0,0,0,0,0,0,-6.7474,-6.7482,-6.7886,-6.7888,-6.789,-6.8047,-6.805,-6.8052,-6.7928,-6.7921,-6.7915,-6.7908,-6.8078,-6.8089,-6.81,0,0,0,0,0,0,0,0,0,0,0,0,0,-6.7646,-6.7485,-6.7886,-6.7847,-6.7845,-6.8047,-6.805,-6.8052,-6.7929,-6.7921,-6.7913,-6.7905,-6.8074,-6.8088,-6.8102,-6.8352,0,0,-6.8146,-6.8152,0,0,0,0,0,0,0,0,-6.7637,-6.7662,-6.7851,-6.785,-6.7848,-6.7959,-6.7966,-6.8153,-6.7931,-6.7897,-6.7911,-6.7901,-6.8047,-6.8063,-6.8111,-6.836,-6.8367,-6.8147,-6.8156,-6.8162,-6.8166,0,0,0,0,0,0,0,-6.7625,-6.7654,-6.795,-6.7854,-6.7852,-6.7823,-6.7838,-6.8001,-6.8016,-6.79,-6.7891,-6.7912,-6.8045,-6.8098,-6.8114,-6.837,-6.8146,-6.8159,-6.8168,-6.8174,-6.8834,-6.8842,0,0,0,0,0,0,-6.7616,-6.7645,-6.7945,-6.7955,-6.772,-6.7837,-6.7854,-6.7931,-6.8013,-6.8018,-6.7918,-6.7905,-6.8077,-6.8098,-6.812,-6.842,-6.8162,-6.8175,-6.8183,-6.8825,-6.8836,-6.8846,0,0,0,0,0,0,-6.7608,-6.7644,-6.7938,-6.7798,-6.7833,-6.7853,-6.794,-6.7939,-6.7992,-6.8027,-6.803,-6.797,-6.8072,-6.81,-6.8295,-6.8424,-6.8181,-6.8194,-6.8814,-6.8828,-6.8841,-6.9021,0,0,0,0,0,0,-6.7597,-6.7642,-6.7736,-6.7801,-6.7841,-6.8111,-6.7948,-6.7948,-6.8016,-6.8,-6.8076,-6.8081,-6.8067,-6.8275,-6.831,-6.8439,-6.8206,-6.8803,-6.8821,-6.8836,-6.9004,-6.9039,-6.907,0,0,0,0,0,-6.7582,-6.7781,-6.7742,-6.7779,-6.7959,-6.8118,-6.8141,-6.812,-6.8027,-6.8123,-6.8146,-6.8079,-6.8404,-6.8296,-6.8334,-6.847,-6.8795,-6.8816,-6.8835,-6.899,-6.9032,-6.9069,0,0,0,0,0,0,-6.7733,-6.7789,-6.7746,-6.7971,-6.8041,-6.8097,-6.8217,-6.8166,-6.8265,-6.8247,-6.8217,-6.8236,-6.8442,-6.8475,-6.8354,-6.8717,-6.8585,-6.8613,-6.8689,-6.873,-6.8762,-6.8751,-6.8218,0,0,0,0,0,-6.7792,-6.7915,-6.7958,-6.8153,-6.819,-6.8198,-6.8266,-6.8244,-6.8316,-6.8345,-6.8382,-6.8456,-6.8574,-6.8653,-6.8764,-6.9007,-6.9024,-6.912,-6.9152,-6.9179,-6.9205,-6.9339,-6.9383,-6.8912,-6.8912,-6.8911,0,0,-6.7916,-6.7962,-6.8042,-6.8184,-6.8235,-6.8366,-6.8223,-6.8367,-6.8464,-6.8367,-6.8555,-6.8585,-6.8665,-6.8886,-6.8985,-6.892,-6.9339,-6.9205,-6.9226,-6.9238,-6.9364,-6.9409,-6.9449,-6.8925,-6.8923,-6.8921,0,0,-6.8209,-6.8255,-6.8423,-6.8477,-6.8556,-6.856,-6.8601,-6.8665,-6.8681,-6.8868,-6.8799,-6.8914,-6.9119,-6.918,-6.9237,-6.9554,-6.9497,-6.959,-6.9763,-6.9893,-6.993,-6.9963,-7.0079,-7.0121,-6.9616,-6.9616,-6.9617,0,-6.8354,-6.8546,-6.8516,-6.8666,-6.8732,-6.8648,-6.882,-6.8874,-6.8986,-6.9035,-6.8959,-6.9215,-6.9262,-6.9498,-6.9575,-6.9623,-6.9671,-6.9583,-6.9927,-6.996,-6.999,-7.01,-7.0144,-6.9627,-6.9626,-6.9625,-6.9624,0,-6.8721,-6.8856,-6.8982,-6.9092,-6.9172,-6.9331,-6.9328,-6.9412,-6.9383,-6.9395,-6.9588,-6.9642,-6.9764,-6.9817,-6.9791,-7.005,-7.0008,-6.993,-6.9797,-7.0047,-7.015,-7.0192,-6.9643,-6.9639,-6.9636,-6.9633,0,0,-6.9116,-6.9207,-6.9254,-6.9304,-6.9385,-6.9489,-6.9645,-6.9763,-6.9837,-6.9917,-7.0049,-7.0224,-7.0153,-7.0219,-7.0198,-7.0312,-7.0563,-7.0221,-7.0222,-7.0285,-7.0856,-7.0916,-7.0965,-7.0524,-7.0532,-7.0538,-7.085,0,-6.9415,-6.9687,-6.9665,-6.9922,-7.0048,-6.997,-7.0106,-7.0172,-7.0188,-7.0298,-7.0315,-7.0441,-7.0336,-7.0376,-7.0485,-7.0509,-7.0678,-7.0486,-7.065,-7.0656,-7.0636,-7.1018,-7.1082,-7.1374,-7.089,-7.0897,-7.0902,0,-6.9801,-6.9894,-7.0164,-7.0227,-7.0279,-7.0402,-7.0509,-7.0614,-7.0687,-7.0691,-7.0764,-7.0724,-7.0884,-7.0745,-7.0966,-7.0836,-7.0902,-7.0924,-7.0935,-7.0952,-7.0796,-7.1049,-7.1466,-7.1512,-7.0964,-7.0959,-7.0955,0,-7.0066,-7.0258,-7.0445,-7.0489,-7.0567,-7.0656,-7.0693,-7.0758,-7.083,-7.0924,-7.0971,-7.1082,-7.1145,-7.1232,-7.1224,-7.1123,-7.1451,-7.131,-7.1461,-7.1462,-7.1536,-7.1532,-7.1973,-7.1573,-7.1572,-7.1572,-7.1571,0,-7.0404,-7.0574,-7.0565,-7.0681,-7.0868,-7.0841,-7.1028,-7.1055,-7.1114,-7.1235,-7.1173,-7.1288,-7.1269,-7.1384,-7.1379,-7.1565,-7.1592,-7.1602,-7.1599,-7.161,-7.1609,-7.1654,-7.1635,-7.1583,-7.1581,-7.1578,-7.1576,0,-7.0733,-7.0734,-7.0933,-7.099,-7.1008,-7.1144,-7.1194,-7.1304,-7.1314,-7.1468,-7.1502,-7.1519,-7.1652,-7.1651,-7.1803,-7.1799,-7.2028,-7.2001,-7.2004,-7.2,-7.2152,-7.2139,-7.264,-7.2706,-7.226,-7.2265,-7.2268,0,-7.0951,-7.1079,-7.115,-7.1225,-7.1268,-7.139,-7.1464,-7.1443,-7.1522,-7.1616,-7.1716,-7.1842,-7.1943,-7.2159,-7.2186,-7.2303,-7.2279,-7.2447,-7.2297,-7.2304,-7.2286,-7.228,-7.2294,-7.2478,-7.2483,-7.2487,-7.249,0,-7.1338,-7.1332,-7.144,-7.1549,-7.1638,-7.1723,-7.1801,-7.1867,-7.1854,-7.1947,-7.2082,-7.216,-7.2314,-7.2442,-7.2555,-7.2594,-7.2543,-7.2536,-7.2578,-7.2592,-7.259,-7.2596,-7.2088,-7.2526,-7.2522,-7.252,-7.2518,-7.2516,-7.162,-7.1731,-7.1799,-7.1922,-7.1978,-7.2052,-7.2159,-7.2182,-7.2293,-7.2417,-7.2397,-7.2549,-7.262,-7.2765,-7.2814,-7.2934,-7.2875,-7.2935,-7.2951,-7.2967,-7.2985,-7.2568,-7.2954,-7.2953,-7.2952,-7.2951,-7.295,0,-7.2007,-7.2047,-7.2159,-7.227,-7.2368,-7.2307,-7.239,-7.2476,-7.261,-7.2679,-7.2779,-7.2935,-7.3059,-7.3095,-7.3215,-7.3304,-7.3284,-7.3337,-7.3332,-7.3343,-7.3029,-7.2982,-7.3352,-7.3352,-7.3351,-7.3351,-7.3351,-7.3351,-7.2221,-7.2406,-7.2408,-7.2622,-7.266,-7.2806,-7.286,-7.2929,-7.2985,-7.3161,-7.3263,-7.3285,-7.3343,-7.3467,-7.3578,-7.3586,-7.3634,-7.3699,-7.3697,-7.3404,-7.3364,-7.3326,-7.3282,-7.3708,-7.3709,-7.4001,-7.4004,-7.4006]},{"header":{"parameterUnit":"m.s-1","parameterCategory":1,"la1":30.2991,"la2":30.254,"lo1":-89.0895,"lo2":-89.0444,"dy":0.0017,"dx":0.0017,"nx":28,"ny":28,"refTime":"2023-11-14T03:00:00:Z","depth":0,"parameterNumber":3,"parameterNumberName":"V-component_of_WINDS"},"data":[0,0,0,0,0,0,0,0,0,0,0,0,0,0,0,0,0,0,0,0,0,0,0,0,0,0,0,0,0,0,0,0,0,0,0,0,0,0,0,0,0,0,0,0,0,0,0,0,0,0,0,0,0,0,0,0,0,0,-5.9265,-5.9264,0,-5.9246,-5.9245,-5.9245,-5.9138,-5.9136,-5.9133,-5.9131,-5.9113,-5.9115,-5.9117,0,0,0,0,0,0,0,0,0,0,0,0,0,-5.9209,-5.921,-5.9265,-5.9264,-5.9264,-5.9246,-5.9245,-5.9245,-5.9139,-5.9136,-5.9133,-5.913,-5.9112,-5.9115,-5.9117,0,0,0,0,0,0,0,0,0,0,0,0,0,-5.9216,-5.9211,-5.9265,-5.9209,-5.9204,-5.9246,-5.9245,-5.9245,-5.914,-5.9136,-5.9132,-5.9128,-5.9112,-5.9114,-5.9117,-5.9212,0,0,-5.9126,-5.9127,0,0,0,0,0,0,0,0,-5.9216,-5.9218,-5.9217,-5.9213,-5.9207,-5.919,-5.9219,-5.9234,-5.9141,-5.9164,-5.9131,-5.9126,-5.9142,-5.9142,-5.9147,-5.9211,-5.921,-5.9126,-5.9128,-5.9129,-5.913,0,0,0,0,0,0,0,-5.9215,-5.9218,-5.9257,-5.9217,-5.9211,-5.9185,-5.9181,-5.9221,-5.9175,-5.9162,-5.9154,-5.9153,-5.9138,-5.9145,-5.9146,-5.921,-5.9126,-5.9129,-5.913,-5.9132,-5.9349,-5.9352,0,0,0,0,0,0,-5.9222,-5.9219,-5.9258,-5.9257,-5.9202,-5.9189,-5.9185,-5.92,-5.9174,-5.9166,-5.9156,-5.9148,-5.9142,-5.9143,-5.9145,-5.9252,-5.9129,-5.9132,-5.9134,-5.9345,-5.935,-5.9354,0,0,0,0,0,0,-5.9222,-5.9227,-5.9259,-5.9235,-5.9237,-5.9194,-5.9211,-5.9201,-5.9207,-5.917,-5.9161,-5.9171,-5.9139,-5.9141,-5.9195,-5.925,-5.9133,-5.9136,-5.934,-5.9346,-5.9352,-5.947,0,0,0,0,0,0,-5.9221,-5.9227,-5.9263,-5.9237,-5.9239,-5.931,-5.9214,-5.9204,-5.9212,-5.9201,-5.9182,-5.9175,-5.9136,-5.9192,-5.9198,-5.9252,-5.9138,-5.9335,-5.9343,-5.935,-5.9461,-5.9479,-5.9495,0,0,0,0,0,-5.9219,-5.9298,-5.9266,-5.9271,-5.9283,-5.9313,-5.9315,-5.9268,-5.9217,-5.9253,-5.9228,-5.9175,-5.9243,-5.9198,-5.9205,-5.926,-5.9331,-5.934,-5.9349,-5.9453,-5.9476,-5.9495,0,0,0,0,0,0,-5.9333,-5.9294,-5.9257,-5.933,-5.9326,-5.9295,-5.9339,-5.9293,-5.9304,-5.9293,-5.9235,-5.9231,-5.9294,-5.9283,-5.9233,-5.935,-5.9278,-5.9289,-5.9355,-5.9376,-5.9393,-5.9394,-5.914,0,0,0,0,0,-5.9366,-5.9394,-5.9358,-5.9426,-5.9426,-5.9383,-5.9395,-5.9359,-5.9352,-5.935,-5.9329,-5.9325,-5.9345,-5.936,-5.9377,-5.9459,-5.9452,-5.95,-5.9517,-5.9531,-5.9541,-5.9582,-5.9603,-5.9384,-5.9384,-5.9384,0,0,-5.9436,-5.9418,-5.944,-5.9449,-5.9441,-5.9471,-5.9382,-5.9418,-5.9439,-5.9355,-5.9405,-5.939,-5.9382,-5.945,-5.9479,-5.9442,-5.96,-5.9543,-5.9555,-5.9557,-5.9594,-5.9615,-5.9633,-5.939,-5.9389,-5.9388,0,0,-5.9578,-5.9568,-5.9622,-5.9616,-5.9605,-5.9576,-5.9589,-5.9565,-5.9551,-5.96,-5.9537,-5.9562,-5.9598,-5.9594,-5.9597,-5.9735,-5.9687,-5.9743,-5.9832,-5.9872,-5.9889,-5.9904,-5.9953,-5.9971,-5.9753,-5.9753,-5.9753,0,-5.9667,-5.9709,-5.9656,-5.9696,-5.9701,-5.9625,-5.9679,-5.9676,-5.9671,-5.9677,-5.9635,-5.9678,-5.9667,-5.9733,-5.9766,-5.9772,-5.9784,-5.9744,-5.9891,-5.9906,-5.9919,-5.9964,-5.9983,-5.976,-5.9759,-5.9758,-5.9758,0,-5.9817,-5.9848,-5.9893,-5.9889,-5.9899,-5.9946,-5.99,-5.9917,-5.988,-5.9855,-5.9905,-5.9889,-5.99,-5.9913,-5.9878,-5.9973,-5.9951,-5.9901,-5.9828,-5.9947,-5.9989,-6.0006,-5.9769,-5.9767,-5.9765,-5.9763,0,0,-6.0033,-5.9997,-6.0014,-6.0011,-5.9992,-6.0014,-6.0057,-6.0067,-6.0082,-6.0081,-6.0115,-6.0147,-6.01,-6.0104,-6.0067,-6.0103,-6.0212,-6.0049,-6.0047,-6.0079,-6.0315,-6.0352,-6.0373,-6.018,-6.0183,-6.0185,-6.0315,0,-6.0168,-6.0238,-6.0191,-6.0269,-6.0295,-6.0222,-6.0259,-6.0252,-6.0229,-6.0248,-6.0223,-6.0246,-6.0184,-6.0185,-6.0217,-6.0192,-6.0259,-6.0182,-6.021,-6.0212,-6.0214,-6.0395,-6.0434,-6.0558,-6.0332,-6.0334,-6.0336,0,-6.0335,-6.034,-6.042,-6.0394,-6.0403,-6.0438,-6.0442,-6.0461,-6.0451,-6.0432,-6.0435,-6.0388,-6.0428,-6.0356,-6.0409,-6.0358,-6.0367,-6.0357,-6.036,-6.0361,-6.0281,-6.04,-6.0597,-6.0615,-6.0362,-6.036,-6.0358,0,-6.0483,-6.0509,-6.056,-6.0559,-6.0531,-6.0556,-6.0545,-6.0531,-6.0539,-6.0543,-6.0548,-6.0557,-6.0562,-6.057,-6.0527,-6.0479,-6.0586,-6.0511,-6.0571,-6.0572,-6.0597,-6.0596,-6.0797,-6.0604,-6.0604,-6.0603,-6.0603,0,-6.0638,-6.069,-6.0625,-6.0657,-6.0712,-6.0657,-6.0714,-6.0695,-6.0683,-6.0709,-6.0647,-6.0673,-6.0615,-6.0636,-6.0602,-6.0651,-6.0654,-6.064,-6.063,-6.0645,-6.0647,-6.065,-6.064,-6.0608,-6.0607,-6.0606,-6.0605,0,-6.0813,-6.0771,-6.0822,-6.0789,-6.0782,-6.0825,-6.0797,-6.0824,-6.0797,-6.0831,-6.0836,-6.0793,-6.0813,-6.0771,-6.0786,-6.0764,-6.0832,-6.081,-6.0836,-6.0829,-6.0891,-6.0885,-6.1101,-6.1126,-6.0918,-6.092,-6.0921,0,-6.0915,-6.0952,-6.0923,-6.0936,-6.0928,-6.0949,-6.0957,-6.0904,-6.0914,-6.0904,-6.0933,-6.0948,-6.0957,-6.0993,-6.0963,-6.0974,-6.0951,-6.1025,-6.0952,-6.0965,-6.0951,-6.0949,-6.0952,-6.1041,-6.1043,-6.1045,-6.1047,0,-6.1099,-6.1076,-6.1089,-6.1095,-6.1105,-6.1107,-6.1105,-6.1119,-6.1062,-6.1077,-6.1096,-6.1103,-6.1117,-6.1133,-6.1136,-6.1125,-6.1077,-6.107,-6.1084,-6.11,-6.1113,-6.1105,-6.0876,-6.1065,-6.1063,-6.1062,-6.1061,-6.106,-6.124,-6.1269,-6.1253,-6.1268,-6.126,-6.1259,-6.1283,-6.1257,-6.1272,-6.1279,-6.1246,-6.1273,-6.126,-6.1259,-6.1253,-6.1273,-6.124,-6.1261,-6.1266,-6.1272,-6.1281,-6.111,-6.1274,-6.1273,-6.1273,-6.1272,-6.1272,0,-6.142,-6.1406,-6.1421,-6.1418,-6.143,-6.1382,-6.1377,-6.139,-6.1414,-6.1405,-6.1414,-6.1436,-6.145,-6.1421,-6.1431,-6.1452,-6.143,-6.1456,-6.1454,-6.1452,-6.1311,-6.1297,-6.1474,-6.1474,-6.1474,-6.1474,-6.1474,-6.1474,-6.1516,-6.1562,-6.1537,-6.1579,-6.1564,-6.1588,-6.1588,-6.1587,-6.1579,-6.1606,-6.1616,-6.1597,-6.158,-6.1587,-6.1598,-6.1589,-6.1595,-6.1629,-6.1613,-6.1482,-6.1462,-6.1443,-6.143,-6.1631,-6.1632,-6.1752,-6.1753,-6.1754]}]]